Location: Bukit Setapoh
(2.2500°N, 113.8000°E)
Time: 00:35:22
(UTC+00:00)

Cosmos 1898 Rocket - Pass Details

Date: 25 July 2021
Orbit: 753 x 784 km, 74.0° (Epoch: 22 September)

Event Time Altitude Azimuth Distance (km) Brightness Sun altitude
Rises 11:06:48 0° 2° (N) 3,195 7.0 -7.6°
Reaches altitude 10° 11:09:18 10° 11° (N) 2,276 6.1 -8.2°
Maximum altitude 11:14:03 37° 78° (ENE) 1,167 4.1 -9.3°
Drops below altitude 10° 11:18:50 10° 144° (SE) 2,300 5.5 -10.4°
Enters shadow 11:19:34 - 147° (SSE) 2,565 5.7 -10.6°
